Regional Weather Roundup
Issued by NWS Glasgow, MT

Home | Current Version | Previous Version | Text Only | Print | Product List | Glossary On
Versions: 1 2 3 4 5 6 7 8 9 10 11 12 13 14 15 16 17 18 19 20 21 22 23 24 25 26 27 28 29 30 31 32 33 34 35 36 37 38 39 40 41 42 43 44 45 46 47 48 49 50
000
ASUS45 KGGW 201915
RWRGGW
HOURLY REGIONAL WEATHER ROUNDUP FOR NORTHEAST MONTANA
NATIONAL WEATHER SERVICE GLASGOW MONTANA
100 PM MDT MON MAY 20 2019

NOTE: "FAIR" INDICATES FEW OR NO CLOUDS BELOW 12,000 FEET WITH NO
SIGNIFICANT WEATHER AND/OR OBSTRUCTIONS TO VISISBILITY.

NORTHEAST MONTANA


CITY           SKY/WX    TMP DP  RH WIND       PRES   REMARKS
GLASGOW        CLOUDY    56  32  40 E21       30.01F
PLENTYWOOD       N/A     60  22  23 SE15G25     N/A
WOLF POINT     CLOUDY    56  34  43 SE17      30.05S
JORDAN           N/A     50  32  50 SE18      29.99S
WINNETT          N/A     46  32  58 E10G20      N/A
SIDNEY         PTSUNNY   59  33  37 E18G28    30.06F
GLENDIVE       CLOUDY    51  33  50 SE20G25   30.06S
MALTA            N/A     57  27  31 E10G22      N/A

FORT PECK REPORTS


CITY           SKY/WX    TMP DP  RH WIND       PRES   REMARKS
FORT PECK        N/A     53  33  46 E23         N/A
THE PINES        N/A     55  29  36 E9G21       N/A

SOUTHEAST MONTANA


CITY           SKY/WX    TMP DP  RH WIND       PRES   REMARKS
BILLINGS       CLOUDY    46  35  65 E16       29.88F
MILES CITY     CLOUDY    46  36  68 E16       29.99F
BAKER          LGT RAIN  43  36  76 SE22      30.04F
LIVINGSTON     CLOUDY    40  35  83 E20       29.84S

CENTRAL MONTANA


CITY           SKY/WX    TMP DP  RH WIND       PRES   REMARKS
HAVRE          CLOUDY    51  34  52 E23G30    29.96S
LEWISTOWN      CLOUDY    40  33  76 SE15G21   29.91S
GREAT FALLS    CLOUDY    48  32  53 E13       29.86S
CUT BANK       CLOUDY    44  29  55 E17       29.92F
HELENA         CLOUDY    49  31  49 N8        29.82F
BUTTE          CLOUDY    40  28  62 VRB3      29.81S
BOZEMAN        LGT RAIN  44  32  62 CALM      29.81S

WESTERN MONTANA


CITY           SKY/WX    TMP DP  RH WIND       PRES   REMARKS
MISSOULA       CLOUDY    51  30  44 SE15      29.79S
KALISPELL      NOT AVBL

NORTH DAKOTA


CITY           SKY/WX    TMP DP  RH WIND       PRES   REMARKS
WILLISTON      SUNNY     61  26  26 SE15G32   30.08F
DICKINSON      CLOUDY    52  32  46 SE18      30.07F
MINOT          MOSUNNY   66  28  24 E24G30    30.10F
BISMARCK       PTSUNNY   58  35  42 E10       30.11F

SOUTHERN SASKATCHEWAN


CITY           SKY/WX    TMP DP  RH WIND       PRES   REMARKS
REGINA         PTSUNNY   61  30  31 E14G24    30.10F
ESTEVAN        MOSUNNY   61  30  31 SE18G29   30.10F
SWIFT CURRENT  SUNNY     57  25  28 SE15G29   30.02F




USA.gov is the U.S. government's official web portal to all federal, state and local government web resources and services.